This demonstration page uses our WeatherBlox Daily Observations layout. Learn more.

Left ArrowRight Arrow

Hourly Observations for May 24, 2022

Temp ( °F °C ) Dew Point ( °F °C ) Humidity (%) Winds ( mph kmh ) Pressure ( in mb ) Visibility ( mi km ) Precip ( " mm )
1:53 am 01:53 Clear 67 19.4 63 17.2 87 87 SE 16 26 29.59 1002 9 14 0.00 0.00
2:53 am 02:53 Clear 66 18.9 63 17.2 90 90 SSE 15 24 29.58 1002 8 13 0.00 0.00
3:53 am 03:53 Clear 65 18.3 61 16.1 87 87 SSE 18 30 29.58 1002 10 16 0.00 0.00
4:53 am 04:53 Clear 64 17.8 59 15 84 84 SSE 22 35 29.58 1002 10 16 0.00 0.00
5:53 am 05:53 Clear 63 17.2 59 15 87 87 SSE 16 26 29.59 1002 10 16 0.00 0.00
6:53 am 06:53 Sunny 63 17.2 60 15.6 90 90 SE 7 11 29.60 1002 10 16 0.00 0.00
7:33 am 07:33 Mostly Cloudy 63 17.2 60 15.6 90 90 NNE 10 17 29.67 1005 10 16 0.00 0.00
7:53 am 07:53 Cloudy 64 17.8 60 15.6 87 87 NNE 8 13 29.62 1003 10 16 0.00 0.00
8:53 am 08:53 Mostly Cloudy 66 18.9 60 15.6 81 81 ENE 5 7 29.62 1003 10 16 0.00 0.00
9:26 am 09:26 Cloudy 68 20 60 15.6 76 76 N 9 15 29.66 1004 10 16 0.00 0.00
9:53 am 09:53 Cloudy 68 20 60 15.6 76 76 N 12 19 29.64 1004 10 16 0.00 0.00
10:38 am 10:38 Partly Cloudy 71 21.7 60 15.6 68 68 N 13 20 29.64 1004 10 16 0.00 0.00
10:53 am 10:53 Mostly Cloudy 72 22.2 59 15 64 64 N 14 22 29.65 1004 10 16 0.00 0.00
11:53 am 11:53 Mostly Cloudy 74 23.3 59 15 60 60 VRB 6 9 29.64 1004 10 16 0.00 0.00
12:09 pm 12:09 Mostly Sunny 75 23.9 58 14.4 55 55 VRB 6 9 29.62 1003 10 16 0.00 0.00
12:53 pm 12:53 Sunny 78 25.6 58 14.4 50 50 NNW 9 15 29.63 1003 10 16 0.00 0.00
1:53 pm 13:53 Sunny 79 26.1 57 13.9 47 47 NNE 3 6 29.61 1003 10 16 0.00 0.00
2:53 pm 14:53 Sunny 83 28.3 52 11.1 34 34 undefined N/A 29.57 1001 10 16 0.00 0.00
3:53 pm 15:53 Sunny 85 29.4 45 7.2 25 25 W 5 7 29.52 1000 10 16 0.00 0.00
4:53 pm 16:53 Sunny 87 30.6 43 6.1 21 21 SSW 5 7 29.49 999 10 16 0.00 0.00
5:53 pm 17:53 Sunny 85 29.4 43 6.1 23 23 undefined N/A 29.53 1000 7 11 0.00 0.00
5:59 pm 17:59 Hazy 76 24.4 48 8.9 37 37 NNE 39 63 29.52 1000 2 2 0.00 0.00
6:02 pm 18:02 Mostly Cloudy with Haze 74 23.3 46 7.8 37 37 NNE 39 63 29.53 1000 1 1 0.00 0.00
6:20 pm 18:20 Mostly Cloudy with Haze 69 20.6 45 7.2 42 42 NNE 40 65 29.62 1003 1 1 0.00 0.00
6:31 pm 18:31 Mostly Cloudy with Nearby Thunderstorms 64 17.8 45 7.2 50 50 NNE 44 70 29.68 1005 1 1 0.00 0.00
6:44 pm 18:44 Mostly Cloudy with Nearby Thunderstorms 61 16.1 48 8.9 63 63 NNE 39 63 29.69 1005 1 2 0.00 0.00
6:48 pm 18:48 Mostly Cloudy with Light Rain 61 16 46 8 59 59 NNE 33 54 29.69 1005 2 2 0.00 0.00
6:53 pm 18:53 Mostly Cloudy with Haze 61 16.1 47 8.3 60 60 NNE 32 52 29.67 1005 3 4 0.00 0.00
6:58 pm 18:58 Mostly Cloudy with Haze 62 16.7 46 7.8 56 56 NE 35 56 29.64 1004 3 5 0.00 0.00
7:07 pm 19:07 Mostly Cloudy with Haze 63 17.2 45 7.2 52 52 NE 37 59 29.62 1003 3 4 0.00 0.00
7:40 pm 19:40 Mostly Cloudy with Haze 63 17.2 44 6.7 50 50 NE 38 61 29.66 1004 4 6 0.00 0.00
7:53 pm 19:53 Mostly Sunny 63 17.2 45 7.2 52 52 NNE 24 39 29.66 1004 8 13 0.00 0.00
8:53 pm 20:53 Clear 61 16.1 44 6.7 54 54 NNE 21 33 29.65 1004 10 16 0.00 0.00
9:53 pm 21:53 Clear 60 15.6 46 7.8 60 60 N 15 24 29.70 1006 10 16 0.00 0.00
10:53 pm 22:53 Clear 59 15 44 6.7 58 58 NW 12 19 29.79 1009 10 16 0.00 0.00
11:53 pm 23:53 Clear 56 13.3 46 7.8 70 70 N 13 20 29.85 1011 10 16 0.00 0.00

Powered by AerisWeather